Regional Weather Roundup
Issued by NWS

Home | Current Version | Previous Version | Text Only | Print | Product List | Glossary Off
Versions: 1 2 3 4 5 6 7 8 9 10 11 12 13 14 15 16 17 18 19 20 21 22 23 24 25 26 27 28 29 30 31 32 33 34 35 36 37 38 39 40 41 42 43 44 45 46 47 48 49 50

000
ASUS45 KBOI 290110
RWRID
WEATHER ROUNDUP FOR IDAHO
NATIONAL WEATHER SERVICE BOISE ID
600 PM MST WED JAN 28 2015

NOTE: "FAIR" INDICATES FEW OR NO CLOUDS BELOW 12000 FEET
WITH NO SIGNIFICANT WEATHER AND/OR OBSTRUCTIONS TO VISIBILITY

IDZ012-014-290200-
SOUTHWEST IDAHO


CITY           SKY/WX    TMP DP  RH WIND       PRES   REMARKS
BOISE          PTCLDY    44  37  76 CALM      30.34R
CALDWELL       PTCLDY    45  34  65 CALM      30.36R
MOUNTAIN HOME  PTCLDY    42  37  83 NW8       30.33R
$$

IDZ016-017-290200-
SOUTHCENTRAL IDAHO


CITY           SKY/WX    TMP DP  RH WIND       PRES   REMARKS
BURLEY         CLEAR     41  35  79 W8        30.33R
JEROME         PTCLDY    36  34  92 NE7       30.34R FOG     WCI  30
TWIN FALLS     CLEAR     40  33  76 W6        30.33R
$$

IDZ019>023-290200-
SOUTHEAST IDAHO


CITY           SKY/WX    TMP DP  RH WIND       PRES   REMARKS
IDAHO FALLS    FOG       34  34 100 SW8       30.35R VSB 1/2 WCI  27
POCATELLO      MOCLDY    35  35 100 W6        30.36R WCI  30
REXBURG        FOG       33  33 100 SW3       30.35R VSB 1/2
$$

IDZ006-010-011-018-031-032-290200-
CENTRAL IDAHO MOUNTAINS


CITY           SKY/WX    TMP DP  RH WIND       PRES   REMARKS
MCCALL         PTCLDY    37  25  61 CALM      30.30R
HAILEY         FOG       32  32 100 CALM      30.32R VSB 1/4
STANLEY          N/A     30  26  85 CALM      30.32R
SALMON         PTCLDY    30  27  86 CALM      30.34R
CHALLIS        PTCLDY    31  30  96 SW5       30.33R WCI  26
$$

IDZ002-004-006-007-026-290200-
NORTHERN IDAHO


CITY           SKY/WX    TMP DP  RH WIND       PRES   REMARKS
LEWISTON       CLEAR     44  39  82 CALM      30.39R
LOWELL           N/A     38  35  89 CALM      30.40R
COEUR D`ALENE  PTCLDY    37  34  87 N8        30.39S WCI  31
MULLAN PASS    CLOUDY    28  26  92 CALM      30.33R
$$



USA.gov is the U.S. government's official web portal to all federal, state and local government web resources and services.